Time,TemperatureF,DewpointF,PressureIn,WindDirection,WindDirectionDegrees,WindSpeedMPH,WindSpeedGustMPH,Humidity,HourlyPrecipIn,Conditions,Clouds,dailyrainin,SoftwareType,DateUTC
2013-12-25 00:11:00,19.1,9.0,30.45,WNW,297,3.0,6.0,65,0.00,,,0.00,weatherlink.com 1.10,2013-12-25 05:11:00,
2013-12-25 00:26:00,18.7,9.0,30.45,NW,313,3.0,10.0,66,0.00,,,0.00,weatherlink.com 1.10,2013-12-25 05:26:00,
2013-12-25 00:41:00,18.6,9.0,30.45,WNW,285,1.0,10.0,65,0.00,,,0.00,weatherlink.com 1.10,2013-12-25 05:41:00,
2013-12-25 00:56:00,18.2,9.0,30.45,WNW,302,4.0,6.0,66,0.00,,,0.00,weatherlink.com 1.10,2013-12-25 05:56:00,
2013-12-25 01:11:00,18.3,9.0,30.45,WNW,302,7.0,10.0,67,0.00,,,0.00,weatherlink.com 1.10,2013-12-25 06:11:00,
2013-12-25 01:26:00,18.1,9.0,30.46,WNW,302,1.0,9.0,68,0.00,,,0.00,weatherlink.com 1.10,2013-12-25 06:26:00,
2013-12-25 01:42:00,17.3,9.0,30.46,West,263,2.0,3.0,69,0.00,,,0.00,weatherlink.com 1.10,2013-12-25 06:42:00,
2013-12-25 01:57:00,16.4,9.0,30.47,West,262,2.0,7.0,71,0.00,,,0.00,weatherlink.com 1.10,2013-12-25 06:57:00,
2013-12-25 02:12:00,16.2,9.0,30.47,West,276,4.0,8.0,72,0.00,,,0.00,weatherlink.com 1.10,2013-12-25 07:12:00,
2013-12-25 02:27:00,16.4,9.0,30.48,WNW,300,5.0,9.0,72,0.00,,,0.00,weatherlink.com 1.10,2013-12-25 07:27:00,
2013-12-25 02:42:00,16.7,9.0,30.50,WSW,253,1.0,7.0,71,0.00,,,0.00,weatherlink.com 1.10,2013-12-25 07:42:00,
2013-12-25 02:57:00,16.7,9.0,30.50,WNW,286,7.0,10.0,72,0.00,,,0.00,weatherlink.com 1.10,2013-12-25 07:57:00,
2013-12-25 03:12:00,16.5,9.0,30.50,West,266,4.0,5.0,72,0.00,,,0.00,weatherlink.com 1.10,2013-12-25 08:12:00,
2013-12-25 03:27:00,16.7,9.0,30.49,WNW,302,5.0,10.0,73,0.00,,,0.00,weatherlink.com 1.10,2013-12-25 08:27:00,
2013-12-25 03:42:00,16.5,9.0,30.50,West,274,3.0,6.0,73,0.00,,,0.00,weatherlink.com 1.10,2013-12-25 08:42:00,
2013-12-25 03:57:00,16.0,9.0,30.50,NW,304,5.0,7.0,73,0.00,,,0.00,weatherlink.com 1.10,2013-12-25 08:57:00,
2013-12-25 04:12:00,15.8,9.0,30.49,WSW,244,0.0,8.0,74,0.00,,,0.00,weatherlink.com 1.10,2013-12-25 09:12:00,
2013-12-25 04:27:00,15.8,9.0,30.48,NW,307,2.0,8.0,75,0.00,,,0.00,weatherlink.com 1.10,2013-12-25 09:27:00,
2013-12-25 04:42:00,15.7,9.0,30.49,West,260,1.0,3.0,76,0.00,,,0.00,weatherlink.com 1.10,2013-12-25 09:42:00,
2013-12-25 04:57:00,15.6,9.0,30.49,West,271,3.0,5.0,76,0.00,,,0.00,weatherlink.com 1.10,2013-12-25 09:57:00,
2013-12-25 05:12:00,15.7,9.0,30.50,WSW,242,1.0,8.0,76,0.00,,,0.00,weatherlink.com 1.10,2013-12-25 10:12:00,
2013-12-25 05:27:00,15.6,9.0,30.50,WSW,258,1.0,6.0,76,0.00,,,0.00,weatherlink.com 1.10,2013-12-25 10:27:00,
2013-12-25 05:42:00,15.7,10.0,30.50,WNW,295,1.0,5.0,77,0.00,,,0.00,weatherlink.com 1.10,2013-12-25 10:42:00,
2013-12-25 05:57:00,15.2,10.0,30.50,West,275,2.0,2.0,78,0.00,,,0.00,weatherlink.com 1.10,2013-12-25 10:57:00,
2013-12-25 06:12:00,14.9,10.0,30.50,West,261,1.0,3.0,79,0.00,,,0.00,weatherlink.com 1.10,2013-12-25 11:12:00,
2013-12-25 06:27:00,14.8,10.0,30.52,SSW,192,3.0,6.0,80,0.00,,,0.00,weatherlink.com 1.10,2013-12-25 11:27:00,
2013-12-25 06:42:00,14.6,10.0,30.52,SW,221,1.0,6.0,80,0.00,,,0.00,weatherlink.com 1.10,2013-12-25 11:42:00,
2013-12-25 06:57:00,14.3,9.0,30.52,SSW,199,3.0,4.0,80,0.00,,,0.00,weatherlink.com 1.10,2013-12-25 11:57:00,
2013-12-25 07:12:00,14.1,9.0,30.52,WSW,241,2.0,4.0,80,0.00,,,0.00,weatherlink.com 1.10,2013-12-25 12:12:00,
2013-12-25 07:27:00,13.9,9.0,30.52,West,266,3.0,6.0,81,0.00,,,0.00,weatherlink.com 1.10,2013-12-25 12:27:00,
2013-12-25 07:42:00,14.1,10.0,30.52,SW,232,2.0,3.0,82,0.00,,,0.00,weatherlink.com 1.10,2013-12-25 12:42:00,
2013-12-25 07:57:00,14.5,10.0,30.52,WSW,244,1.0,2.0,82,0.00,,,0.00,weatherlink.com 1.10,2013-12-25 12:57:00,
2013-12-25 08:12:00,15.9,11.0,30.53,SW,214,1.0,5.0,81,0.00,,,0.00,weatherlink.com 1.10,2013-12-25 13:12:00,
2013-12-25 08:27:00,17.1,11.0,30.53,West,266,2.0,4.0,78,0.00,,,0.00,weatherlink.com 1.10,2013-12-25 13:27:00,
2013-12-25 08:42:00,17.5,12.0,30.53,NW,306,0.0,4.0,78,0.00,,,0.00,weatherlink.com 1.10,2013-12-25 13:42:00,
2013-12-25 08:57:00,17.9,12.0,30.55,West,270,4.0,4.0,78,0.00,,,0.00,weatherlink.com 1.10,2013-12-25 13:57:00,
2013-12-25 09:12:00,18.4,12.0,30.55,West,259,1.0,3.0,75,0.00,,,0.00,weatherlink.com 1.10,2013-12-25 14:12:00,
2013-12-25 09:27:00,19.5,13.0,30.55,WSW,239,3.0,5.0,75,0.00,,,0.00,weatherlink.com 1.10,2013-12-25 14:27:00,
2013-12-25 09:42:00,20.1,12.0,30.55,SSW,200,4.0,6.0,72,0.00,,,0.00,weatherlink.com 1.10,2013-12-25 14:42:00,
2013-12-25 09:57:00,20.7,13.0,30.56,South,188,4.0,7.0,71,0.00,,,0.00,weatherlink.com 1.10,2013-12-25 14:57:00,
2013-12-25 10:12:00,21.5,12.0,30.56,South,169,1.0,3.0,67,0.00,,,0.00,weatherlink.com 1.10,2013-12-25 15:12:00,
2013-12-25 10:27:00,22.6,13.0,30.55,SSW,205,0.0,5.0,68,0.00,,,0.00,weatherlink.com 1.10,2013-12-25 15:27:00,
2013-12-25 10:42:00,22.5,12.0,30.54,SSE,157,2.0,7.0,65,0.00,,,0.00,weatherlink.com 1.10,2013-12-25 15:42:00,
2013-12-25 10:57:00,22.4,13.0,30.53,SE,132,1.0,5.0,67,0.00,,,0.00,weatherlink.com 1.10,2013-12-25 15:57:00,
2013-12-25 11:12:00,22.4,13.0,30.53,SE,132,2.0,8.0,67,0.00,,,0.00,weatherlink.com 1.10,2013-12-25 16:12:00,
2013-12-25 11:27:00,21.8,13.0,30.52,South,173,1.0,6.0,68,0.00,,,0.00,weatherlink.com 1.10,2013-12-25 16:27:00,
2013-12-25 11:42:00,21.9,13.0,30.52,SSE,161,2.0,5.0,68,0.00,,,0.00,weatherlink.com 1.10,2013-12-25 16:42:00,
2013-12-25 11:57:00,22.6,13.0,30.51,West,264,2.0,7.0,68,0.00,,,0.00,weatherlink.com 1.10,2013-12-25 16:57:00,
2013-12-25 12:13:00,23.6,14.0,30.51,SSW,196,4.0,9.0,66,0.00,,,0.00,weatherlink.com 1.10,2013-12-25 17:13:00,
2013-12-25 12:28:00,24.0,13.0,30.50,SSE,167,1.0,5.0,63,0.00,,,0.00,weatherlink.com 1.10,2013-12-25 17:28:00,
2013-12-25 12:43:00,23.9,13.0,30.50,SSE,166,4.0,8.0,63,0.00,,,0.00,weatherlink.com 1.10,2013-12-25 17:43:00,
2013-12-25 12:58:00,23.9,13.0,30.49,South,187,2.0,8.0,64,0.00,,,0.00,weatherlink.com 1.10,2013-12-25 17:58:00,
2013-12-25 13:28:00,24.8,14.0,30.48,West,259,1.0,6.0,63,0.00,,,0.00,weatherlink.com 1.10,2013-12-25 18:28:00,
2013-12-25 13:43:00,25.0,14.0,30.47,South,184,3.0,6.0,62,0.00,,,0.00,weatherlink.com 1.10,2013-12-25 18:43:00,
2013-12-25 13:58:00,26.7,15.0,30.46,SE,136,8.0,10.0,62,0.00,,,0.00,weatherlink.com 1.10,2013-12-25 18:58:00,
2013-12-25 14:13:00,27.0,15.0,30.45,SSW,194,4.0,7.0,61,0.00,,,0.00,weatherlink.com 1.10,2013-12-25 19:13:00,
2013-12-25 14:28:00,27.3,15.0,30.45,SSE,150,3.0,10.0,61,0.00,,,0.00,weatherlink.com 1.10,2013-12-25 19:28:00,
2013-12-25 14:43:00,27.5,16.0,30.44,ESE,103,4.0,10.0,61,0.00,,,0.00,weatherlink.com 1.10,2013-12-25 19:43:00,
2013-12-25 14:58:00,27.1,15.0,30.44,South,186,1.0,10.0,61,0.00,,,0.00,weatherlink.com 1.10,2013-12-25 19:58:00,
2013-12-25 15:13:00,27.1,16.0,30.43,SSE,158,2.0,9.0,62,0.00,,,0.00,weatherlink.com 1.10,2013-12-25 20:13:00,
2013-12-25 15:28:00,26.9,15.0,30.44,SSW,202,3.0,7.0,62,0.00,,,0.00,weatherlink.com 1.10,2013-12-25 20:28:00,
2013-12-25 15:43:00,26.9,16.0,30.43,South,188,3.0,8.0,63,0.00,,,0.00,weatherlink.com 1.10,2013-12-25 20:43:00,
2013-12-25 15:58:00,27.0,16.0,30.44,South,182,5.0,10.0,63,0.00,,,0.00,weatherlink.com 1.10,2013-12-25 20:58:00,
2013-12-25 16:13:00,27.0,16.0,30.44,SSW,203,3.0,6.0,63,0.00,,,0.00,weatherlink.com 1.10,2013-12-25 21:13:00,
2013-12-25 16:28:00,27.0,15.0,30.44,SW,221,0.0,6.0,62,0.00,,,0.00,weatherlink.com 1.10,2013-12-25 21:28:00,
2013-12-25 16:43:00,26.8,15.0,30.44,South,180,3.0,8.0,62,0.00,,,0.00,weatherlink.com 1.10,2013-12-25 21:43:00,
2013-12-25 16:58:00,26.7,16.0,30.43,South,191,2.0,6.0,63,0.00,,,0.00,weatherlink.com 1.10,2013-12-25 21:58:00,
2013-12-25 17:13:00,26.5,15.0,30.43,South,178,2.0,6.0,61,0.00,,,0.00,weatherlink.com 1.10,2013-12-25 22:13:00,
2013-12-25 17:28:00,26.3,16.0,30.43,South,171,1.0,8.0,65,0.00,,,0.00,weatherlink.com 1.10,2013-12-25 22:28:00,
2013-12-25 17:43:00,26.0,16.0,30.42,ESE,115,2.0,7.0,65,0.00,,,0.00,weatherlink.com 1.10,2013-12-25 22:43:00,
2013-12-25 17:58:00,25.7,16.0,30.42,ESE,121,3.0,6.0,66,0.00,,,0.00,weatherlink.com 1.10,2013-12-25 22:58:00,
2013-12-25 18:13:00,25.8,15.0,30.43,SE,125,2.0,5.0,65,0.00,,,0.00,weatherlink.com 1.10,2013-12-25 23:13:00,
2013-12-25 18:28:00,25.9,16.0,30.42,ESE,109,1.0,3.0,65,0.00,,,0.00,weatherlink.com 1.10,2013-12-25 23:28:00,
2013-12-25 18:43:00,25.8,16.0,30.42,SE,144,1.0,4.0,66,0.00,,,0.00,weatherlink.com 1.10,2013-12-25 23:43:00,
2013-12-25 18:58:00,25.5,17.0,30.42,SE,141,0.0,5.0,69,0.00,,,0.00,weatherlink.com 1.10,2013-12-25 23:58:00,
2013-12-25 19:13:00,25.6,17.0,30.42,SSE,152,1.0,4.0,69,0.00,,,0.00,weatherlink.com 1.10,2013-12-26 00:13:00,
2013-12-25 19:28:00,25.6,17.0,30.42,SE,140,1.0,4.0,69,0.00,,,0.00,weatherlink.com 1.10,2013-12-26 00:28:00,
2013-12-25 19:43:00,25.7,16.0,30.42,SSW,192,2.0,6.0,67,0.00,,,0.00,weatherlink.com 1.10,2013-12-26 00:43:00,
2013-12-25 19:58:00,25.8,15.0,30.41,SSW,200,0.0,6.0,65,0.00,,,0.00,weatherlink.com 1.10,2013-12-26 00:58:00,
2013-12-25 20:13:00,25.7,16.0,30.41,ESE,120,2.0,3.0,68,0.00,,,0.00,weatherlink.com 1.10,2013-12-26 01:13:00,
2013-12-25 20:28:00,25.2,17.0,30.41,SE,130,1.0,4.0,70,0.00,,,0.00,weatherlink.com 1.10,2013-12-26 01:28:00,
2013-12-25 20:43:00,25.4,17.0,30.41,SE,141,2.0,4.0,70,0.00,,,0.00,weatherlink.com 1.10,2013-12-26 01:43:00,
2013-12-25 20:58:00,25.6,16.0,30.40,SE,127,3.0,6.0,67,0.00,,,0.00,weatherlink.com 1.10,2013-12-26 01:58:00,
2013-12-25 21:13:00,25.8,16.0,30.39,SW,217,1.0,5.0,67,0.00,,,0.00,weatherlink.com 1.10,2013-12-26 02:13:00,
2013-12-25 21:28:00,25.9,16.0,30.39,South,188,0.0,7.0,65,0.00,,,0.00,weatherlink.com 1.10,2013-12-26 02:28:00,
2013-12-25 21:43:00,26.0,16.0,30.38,ESE,114,2.0,5.0,65,0.00,,,0.00,weatherlink.com 1.10,2013-12-26 02:43:00,
2013-12-25 21:58:00,25.9,16.0,30.38,SSE,152,3.0,5.0,65,0.00,,,0.00,weatherlink.com 1.10,2013-12-26 02:58:00,
2013-12-25 22:13:00,25.9,16.0,30.37,East,90,2.0,5.0,65,0.00,,,0.00,weatherlink.com 1.10,2013-12-26 03:13:00,
2013-12-25 22:28:00,25.6,16.0,30.37,ESE,116,2.0,4.0,66,0.00,,,0.00,weatherlink.com 1.10,2013-12-26 03:28:00,
2013-12-25 22:43:00,25.2,16.0,30.37,SE,128,1.0,4.0,68,0.00,,,0.00,weatherlink.com 1.10,2013-12-26 03:43:00,
2013-12-25 22:58:00,24.7,17.0,30.37,SSE,167,0.0,2.0,72,0.00,,,0.00,weatherlink.com 1.10,2013-12-26 03:58:00,
2013-12-25 23:13:00,24.3,17.0,30.35,ESE,119,2.0,3.0,74,0.00,,,0.00,weatherlink.com 1.10,2013-12-26 04:13:00,
2013-12-25 23:29:00,24.2,17.0,30.35,South,177,1.0,3.0,73,0.00,,,0.00,weatherlink.com 1.10,2013-12-26 04:29:00,
2013-12-25 23:44:00,23.9,17.0,30.34,WNW,295,1.0,4.0,74,0.00,,,0.00,weatherlink.com 1.10,2013-12-26 04:44:00,
2013-12-25 23:59:00,23.9,16.0,30.34,South,182,0.0,3.0,72,0.00,,,0.00,weatherlink.com 1.10,2013-12-26 04:59:00,